[[{"header":{"parameterUnit":"m.s-1","parameterCategory":1,"la1":30.2991,"la2":30.254,"lo1":-89.0895,"lo2":-89.0444,"dy":0.0017,"dx":0.0017,"nx":28,"ny":28,"refTime":"2025-06-03T03:00:00:Z","depth":0,"parameterNumber":2,"parameterNumberName":"U-component_of_WINDS"},"data":[0,0,0,0,0,0,0,0,0,0,0,0,0,0,0,0,0,0,0,0,0,0,0,0,0,0,0,0,0,0,0,0,0,0,0,0,0,0,0,0,0,0,0,0,0,0,0,0,0,0,0,0,0,0,0,0,0,0,-6.2405,-6.2407,0,-6.2562,-6.2564,-6.2566,-6.2529,-6.2526,-6.2523,-6.252,-6.2681,-6.2688,-6.2695,0,0,0,0,0,0,0,0,0,0,0,0,0,-6.2072,-6.2078,-6.2405,-6.2407,-6.2409,-6.2562,-6.2564,-6.2566,-6.2529,-6.2526,-6.2522,-6.2519,-6.2678,-6.2687,-6.2695,0,0,0,0,0,0,0,0,0,0,0,0,0,-6.2221,-6.208,-6.2404,-6.2409,-6.2411,-6.2561,-6.2564,-6.2567,-6.253,-6.2526,-6.2521,-6.2517,-6.2676,-6.2686,-6.2696,-6.2852,0,0,-6.2729,-6.2734,0,0,0,0,0,0,0,0,-6.2213,-6.2234,-6.2406,-6.2409,-6.2411,-6.2521,-6.2505,-6.2662,-6.2531,-6.2485,-6.252,-6.2515,-6.2631,-6.2645,-6.2685,-6.286,-6.2866,-6.273,-6.2736,-6.2741,-6.2744,0,0,0,0,0,0,0,-6.2203,-6.2227,-6.2467,-6.2409,-6.2412,-6.2403,-6.2419,-6.2535,-6.2581,-6.2489,-6.2486,-6.2505,-6.2632,-6.2675,-6.2688,-6.2869,-6.273,-6.2739,-6.2746,-6.275,-6.3176,-6.3181,0,0,0,0,0,0,-6.219,-6.2218,-6.2462,-6.2472,-6.2299,-6.2412,-6.2431,-6.2491,-6.258,-6.2589,-6.2509,-6.2503,-6.2659,-6.2676,-6.2694,-6.2879,-6.2741,-6.2751,-6.2757,-6.3172,-6.3178,-6.3183,0,0,0,0,0,0,-6.2183,-6.2212,-6.2456,-6.2345,-6.2375,-6.2423,-6.249,-6.2496,-6.2538,-6.2596,-6.2604,-6.2544,-6.2656,-6.2679,-6.2812,-6.2884,-6.2755,-6.2765,-6.3166,-6.3173,-6.318,-6.3252,0,0,0,0,0,0,-6.2174,-6.221,-6.227,-6.2346,-6.2381,-6.2572,-6.2495,-6.2502,-6.2557,-6.2551,-6.2631,-6.2639,-6.2654,-6.2797,-6.2823,-6.2896,-6.2773,-6.3159,-6.3169,-6.3178,-6.3243,-6.3261,-6.3276,0,0,0,0,0,-6.2162,-6.2284,-6.2273,-6.2303,-6.2457,-6.2576,-6.2596,-6.261,-6.2563,-6.2623,-6.2659,-6.2637,-6.2873,-6.2811,-6.284,-6.2917,-6.3155,-6.3166,-6.3177,-6.3236,-6.3257,-6.3275,0,0,0,0,0,0,-6.2215,-6.2294,-6.2283,-6.2433,-6.2498,-6.257,-6.2645,-6.2633,-6.2712,-6.2703,-6.2718,-6.2736,-6.2871,-6.2909,-6.2838,-6.3071,-6.3007,-6.3024,-6.3041,-6.3062,-6.3078,-6.3065,-6.2782,0,0,0,0,0,-6.2245,-6.2335,-6.24,-6.2526,-6.2559,-6.2597,-6.265,-6.2655,-6.2723,-6.275,-6.2797,-6.2863,-6.2952,-6.301,-6.3095,-6.325,-6.3265,-6.3318,-6.3334,-6.3347,-6.336,-6.3442,-6.3465,-6.322,-6.322,-6.3219,0,0,-6.2306,-6.236,-6.2416,-6.2538,-6.2589,-6.2681,-6.262,-6.2722,-6.279,-6.2766,-6.2893,-6.293,-6.3005,-6.3149,-6.3215,-6.3184,-6.3432,-6.3361,-6.3371,-6.3378,-6.3456,-6.3479,-6.35,-6.3227,-6.3226,-6.3225,0,0,-6.2463,-6.2515,-6.2624,-6.2677,-6.2755,-6.2779,-6.2805,-6.2879,-6.2902,-6.3031,-6.3014,-6.3096,-6.325,-6.3303,-6.335,-6.3528,-6.3509,-6.3556,-6.3639,-6.3719,-6.3738,-6.3755,-6.3815,-6.3837,-6.357,-6.3571,-6.3571,0,-6.2529,-6.2668,-6.2682,-6.2784,-6.2837,-6.282,-6.293,-6.2981,-6.3082,-6.3119,-6.3084,-6.3274,-6.3324,-6.3479,-6.3522,-6.3563,-6.3591,-6.3545,-6.3734,-6.3752,-6.3768,-6.3825,-6.3848,-6.3575,-6.3575,-6.3574,-6.3574,0,-6.2743,-6.284,-6.2919,-6.3016,-6.3079,-6.3185,-6.3214,-6.3276,-6.3277,-6.3305,-6.3435,-6.3495,-6.359,-6.3628,-6.363,-6.3783,-6.3761,-6.3731,-6.3665,-6.3796,-6.3849,-6.3872,-6.3582,-6.3581,-6.3579,-6.3578,0,0,-6.2935,-6.304,-6.3068,-6.3111,-6.3196,-6.3271,-6.3376,-6.3469,-6.352,-6.3592,-6.3678,-6.3809,-6.378,-6.3834,-6.3842,-6.3912,-6.4045,-6.3873,-6.3875,-6.3899,-6.4213,-6.4232,-6.4258,-6.4035,-6.404,-6.4043,-6.4205,0,-6.3097,-6.3281,-6.3297,-6.3462,-6.3549,-6.3535,-6.3626,-6.3688,-6.3717,-6.3796,-6.3829,-6.3919,-6.3877,-6.3909,-6.3978,-6.4014,-6.4108,-6.4004,-6.4113,-6.4117,-6.409,-6.4287,-6.4308,-6.4458,-6.4227,-6.4231,-6.4233,0,-6.331,-6.3386,-6.3559,-6.363,-6.3667,-6.3749,-6.3834,-6.3911,-6.398,-6.3996,-6.4056,-6.4055,-6.4162,-6.4096,-6.4242,-6.4171,-6.4217,-6.4242,-6.4248,-6.4255,-6.418,-6.4295,-6.4507,-6.4527,-6.4267,-6.4265,-6.4262,0,-6.3427,-6.3574,-6.3696,-6.3734,-6.382,-6.3877,-6.3916,-6.3981,-6.4036,-6.4111,-6.4146,-6.4234,-6.4281,-6.4349,-6.4371,-6.4321,-6.4515,-6.4452,-6.4529,-6.4529,-6.4567,-6.4563,-6.4785,-6.4605,-6.4604,-6.4604,-6.4604,0,-6.3604,-6.3709,-6.3749,-6.3823,-6.3941,-6.3959,-6.4075,-6.4111,-6.4169,-6.4249,-6.4244,-6.432,-6.4346,-6.4426,-6.4445,-6.4561,-6.4584,-6.4598,-6.4601,-6.4596,-6.4594,-6.4623,-6.4612,-6.461,-6.4609,-6.4608,-6.4607,0,-6.3753,-6.3785,-6.3915,-6.3987,-6.4007,-6.409,-6.4151,-6.4222,-6.4251,-6.4353,-6.4378,-6.4423,-6.4517,-6.4547,-6.4661,-6.4673,-6.4807,-6.4803,-6.4783,-6.4782,-6.4857,-6.4847,-6.5101,-6.5134,-6.4936,-6.4938,-6.494,0,-6.3861,-6.3941,-6.4021,-6.4074,-6.4115,-6.4202,-6.4257,-6.4279,-6.4336,-6.4421,-6.4482,-6.4575,-6.4649,-6.48,-6.4843,-6.4929,-6.4924,-6.5008,-6.4937,-6.4929,-6.4921,-6.4914,-6.492,-6.5019,-6.5021,-6.5023,-6.5024,0,-6.4048,-6.406,-6.4139,-6.4224,-6.429,-6.4359,-6.4424,-6.4469,-6.45,-6.4565,-6.466,-6.4719,-6.4834,-6.4925,-6.5014,-6.5053,-6.5043,-6.5047,-6.5068,-6.5062,-6.5045,-6.5051,-6.4814,-6.504,-6.5038,-6.5037,-6.5036,-6.5036,-6.4177,-6.4247,-6.4313,-6.4402,-6.4454,-6.4515,-6.4584,-6.4622,-6.4702,-6.4796,-6.4806,-6.4908,-6.4975,-6.5092,-6.5136,-6.5216,-6.5192,-6.5225,-6.5232,-6.5239,-6.5242,-6.5036,-6.5233,-6.5232,-6.5232,-6.5232,-6.5232,0,-6.436,-6.4402,-6.4484,-6.4575,-6.4645,-6.4631,-6.4703,-6.4761,-6.4851,-6.4914,-6.4988,-6.5097,-6.5185,-6.5236,-6.5324,-6.5378,-6.5376,-6.54,-6.5394,-6.5403,-6.5261,-6.5231,-6.54,-6.54,-6.54,-6.54,-6.54,-6.54,-6.4463,-6.4579,-6.4599,-6.474,-6.4781,-6.4881,-6.4923,-6.4979,-6.5029,-6.515,-6.5223,-6.5256,-6.5313,-6.5406,-6.5486,-6.5499,-6.553,-6.5556,-6.5565,-6.5431,-6.5413,-6.5396,-6.5368,-6.5564,-6.5564,-6.57,-6.5701,-6.5702]},{"header":{"parameterUnit":"m.s-1","parameterCategory":1,"la1":30.2991,"la2":30.254,"lo1":-89.0895,"lo2":-89.0444,"dy":0.0017,"dx":0.0017,"nx":28,"ny":28,"refTime":"2025-06-03T03:00:00:Z","depth":0,"parameterNumber":3,"parameterNumberName":"V-component_of_WINDS"},"data":[0,0,0,0,0,0,0,0,0,0,0,0,0,0,0,0,0,0,0,0,0,0,0,0,0,0,0,0,0,0,0,0,0,0,0,0,0,0,0,0,0,0,0,0,0,0,0,0,0,0,0,0,0,0,0,0,0,0,2.8576,2.8576,0,2.8591,2.8591,2.8591,2.8538,2.8537,2.8535,2.8533,2.8547,2.8549,2.8551,0,0,0,0,0,0,0,0,0,0,0,0,0,2.8502,2.8504,2.8576,2.8576,2.8577,2.8591,2.8591,2.8591,2.8538,2.8536,2.8535,2.8533,2.8546,2.8549,2.8551,0,0,0,0,0,0,0,0,0,0,0,0,0,2.8527,2.8505,2.8576,2.8552,2.855,2.8591,2.8591,2.8591,2.8539,2.8536,2.8534,2.8532,2.8546,2.8548,2.8551,2.8615,0,0,2.8559,2.8561,0,0,0,0,0,0,0,0,2.8526,2.853,2.8555,2.8554,2.8552,2.856,2.857,2.8599,2.8539,2.8543,2.8533,2.8531,2.8553,2.8555,2.8563,2.8616,2.8616,2.856,2.8561,2.8562,2.8563,0,0,0,0,0,0,0,2.8524,2.8529,2.8582,2.8556,2.8554,2.854,2.8541,2.8575,2.8561,2.8543,2.8539,2.8541,2.8552,2.856,2.8563,2.8616,2.856,2.8562,2.8564,2.8565,2.8723,2.8725,0,0,0,0,0,0,2.8526,2.8528,2.8581,2.8582,2.8533,2.8544,2.8545,2.856,2.8561,2.8558,2.8543,2.8539,2.8557,2.856,2.8563,2.8638,2.8562,2.8565,2.8567,2.872,2.8723,2.8726,0,0,0,0,0,0,2.8525,2.8531,2.8581,2.8554,2.856,2.8547,2.8565,2.8561,2.857,2.8561,2.8558,2.8555,2.8555,2.8559,2.8603,2.8638,2.8566,2.8569,2.8717,2.8721,2.8725,2.8789,0,0,0,0,0,0,2.8523,2.8531,2.8555,2.8555,2.8561,2.862,2.8567,2.8563,2.8575,2.8569,2.8571,2.8569,2.8554,2.8599,2.8605,2.864,2.8571,2.8714,2.8719,2.8724,2.8784,2.8794,2.8804,0,0,0,0,0,2.852,2.8572,2.8557,2.8564,2.8591,2.8623,2.8626,2.8607,2.8578,2.8602,2.8597,2.8569,2.8633,2.8604,2.8611,2.8647,2.8712,2.8718,2.8723,2.8779,2.8792,2.8804,0,0,0,0,0,0,2.8576,2.8572,2.8555,2.8608,2.8616,2.8614,2.8643,2.8622,2.8638,2.8632,2.8608,2.8609,2.8656,2.8656,2.8623,2.8709,2.8667,2.8675,2.8708,2.872,2.873,2.8729,2.8573,0,0,0,0,0,2.8595,2.8621,2.8616,2.8664,2.8669,2.8656,2.8669,2.8654,2.8661,2.8664,2.8661,2.8669,2.8691,2.8705,2.8725,2.8784,2.8783,2.8812,2.8822,2.8831,2.8837,2.8868,2.8881,2.8745,2.8745,2.8745,0,0,2.8633,2.8634,2.8652,2.8675,2.8679,2.8707,2.8659,2.8689,2.8709,2.8668,2.8709,2.8708,2.8715,2.8766,2.8789,2.8768,2.8875,2.8838,2.8845,2.8847,2.8876,2.8888,2.89,2.8749,2.8748,2.8748,0,0,2.8717,2.8721,2.8761,2.8767,2.8775,2.8766,2.8776,2.8777,2.8775,2.8816,2.8786,2.8809,2.8847,2.8853,2.8862,2.895,2.8925,2.8957,2.901,2.904,2.9051,2.906,2.9092,2.9103,2.8964,2.8964,2.8964,0,2.8764,2.8805,2.8785,2.8818,2.8829,2.8794,2.8835,2.8841,2.8855,2.8863,2.8839,2.8887,2.8889,2.8942,2.8963,2.8971,2.8982,2.8956,2.9051,2.906,2.9069,2.9098,2.911,2.8968,2.8967,2.8967,2.8967,0,2.8862,2.889,2.8922,2.8937,2.8951,2.8988,2.8974,2.8991,2.8975,2.8969,2.9012,2.9013,2.9033,2.9045,2.9029,2.9095,2.9082,2.9055,2.9012,2.9086,2.9113,2.9124,2.8973,2.8972,2.8971,2.897,0,0,2.898,2.8984,2.8996,2.9003,2.9009,2.9031,2.9067,2.9086,2.9101,2.9112,2.9141,2.9175,2.9151,2.916,2.9146,2.9173,2.9243,2.9143,2.9143,2.9161,2.9316,2.9335,2.9349,2.9227,2.9229,2.9231,2.9315,0,2.9062,2.9123,2.9107,2.9168,2.9194,2.9162,2.9193,2.92,2.9196,2.9217,2.9212,2.9236,2.9202,2.9208,2.9234,2.9229,2.9273,2.9223,2.9253,2.9255,2.9252,2.9363,2.9384,2.9463,2.9326,2.9327,2.9329,0,2.9166,2.9182,2.9246,2.9249,2.9259,2.9287,2.9304,2.9325,2.9333,2.9328,2.934,2.932,2.9355,2.9313,2.9361,2.9327,2.9338,2.9338,2.9341,2.9342,2.9295,2.9367,2.9488,2.95,2.9345,2.9344,2.9343,0,2.9246,2.9283,2.9326,2.9332,2.9337,2.9358,2.9361,2.9366,2.9379,2.9395,2.9403,2.9422,2.9432,2.9447,2.9433,2.9404,2.9484,2.944,2.948,2.948,2.9497,2.9496,2.9621,2.9506,2.9506,2.9506,2.9506,0,2.9339,2.9379,2.9362,2.9388,2.9432,2.9413,2.9457,2.9457,2.9462,2.9488,2.9461,2.9486,2.9466,2.9489,2.9478,2.952,2.9524,2.9521,2.9518,2.9523,2.9524,2.953,2.9524,2.9509,2.9508,2.9508,2.9507,0,2.9434,2.9425,2.9469,2.9471,2.9472,2.9504,2.9505,2.953,2.9524,2.9557,2.9563,2.9554,2.958,2.9568,2.9594,2.9587,2.964,2.963,2.9638,2.9635,2.9675,2.9671,2.9807,2.9824,2.9699,2.9701,2.9702,0,2.9494,2.9524,2.9529,2.9545,2.955,2.9575,2.9589,2.9572,2.9587,2.9599,2.9622,2.9646,2.9664,2.9706,2.9702,2.9722,2.9711,2.9758,2.9714,2.9719,2.9712,2.971,2.9713,2.9766,2.9768,2.9769,2.977,0,2.9601,2.9595,2.9616,2.9636,2.9653,2.9668,2.968,2.9694,2.9678,2.9696,2.9722,2.9736,2.9764,2.9788,2.9806,2.9809,2.9787,2.9784,2.9794,2.98,2.9803,2.9801,2.9661,2.9781,2.978,2.9779,2.9778,2.9778,2.968,2.9706,2.9714,2.9738,2.9746,2.9758,2.9781,2.9779,2.9801,2.9822,2.9811,2.9842,2.985,2.9872,2.9878,2.9901,2.9883,2.9898,2.9901,2.9905,2.991,2.98,2.9905,2.9904,2.9904,2.9904,2.9903,0,2.9786,2.9789,2.9812,2.9831,2.985,2.9829,2.9841,2.9859,2.9886,2.9896,2.9914,2.9945,2.9968,2.9966,2.9987,3.0007,2.9997,3.0013,3.0011,3.0012,2.9926,2.9915,3.002,3.002,3.002,3.002,3.002,3.002,2.9843,2.9885,2.988,2.9926,2.9929,2.9959,2.9968,2.998,2.9987,3.0023,3.0042,3.0041,3.0046,3.0068,3.0088,3.0087,3.0096,3.0115,3.011,3.0029,3.0018,3.0007,2.9996,3.0117,3.0117,3.0194,3.0195,3.0196]}]]